This is the latest recevied weather packets stored in our database for station/object IW1CBG-3. If no packets are shown the sender has not sent any weather packets the latest 10 day(s).
| Time | Temp. | Humidity | Pressure | Rain* | Wind** | Luminosity | Snow |
|---|---|---|---|---|---|---|---|
| 1788683178 | 25.56° C | 61% | 1031.2 hPa | 0 mm | - | - | - |
| 1788682578 | 25° C | 63% | 1031.6 hPa | 0 mm | - | - | - |
| 1788681978 | 23.89° C | 68% | 1031.7 hPa | 0 mm | - | - | - |
| 1788681378 | 23.33° C | 72% | 1032.2 hPa | 0 mm | - | - | - |
| 1788680778 | 22.22° C | 74% | 1032.7 hPa | 0 mm | - | - | - |
| 1788680179 | 22.78° C | 75% | 1032.3 hPa | 0 mm | - | - | - |
| 1788679609 | 20.56° C | 79% | 1032.8 hPa | 0 mm | - | - | - |
| 1788678978 | 18.89° C | 88% | 1033.3 hPa | 0 mm | - | - | - |
| 1788678381 | 18.33° C | 89% | 1033.6 hPa | 0 mm | - | - | - |
| 1788677779 | 17.78° C | 90% | 1033.8 hPa | 0 mm | - | - | - |
| 1788677178 | 16.67° C | 91% | 1033.7 hPa | 0 mm | - | - | - |
| 1788676578 | 16.11° C | 93% | 1033.9 hPa | 0 mm | - | - | - |
| 1788675979 | 15.56° C | 96% | 1034.1 hPa | 0 mm | - | - | - |
| 1788675378 | 15.56° C | 97% | 1033.8 hPa | 0 mm | - | - | - |
| 1788674779 | 15.56° C | 98% | 1034.1 hPa | 0 mm | - | - | - |
| 1788674178 | 15.56° C | 98% | 1033.9 hPa | 0 mm | - | - | - |
| 1788673578 | 15° C | 98% | 1033.9 hPa | 0 mm | - | - | - |
| 1788672979 | 15° C | 98% | 1033.7 hPa | 0 mm | - | - | - |
| 1788672379 | 15° C | 98% | 1033.7 hPa | 0 mm | - | - | - |
| 1788671779 | 15° C | 98% | 1033.7 hPa | 0 mm | - | - | - |
| 1788671182 | 15° C | 98% | 1033.6 hPa | 0 mm | - | - | - |
| 1788670578 | 15° C | 98% | 1033.4 hPa | 0 mm | - | - | - |
| 1788669978 | 15° C | 98% | 1033.3 hPa | 0 mm | - | - | - |
| 1788669378 | 15.56° C | 98% | 1033.2 hPa | 0 mm | - | - | - |
| 1788668778 | 15.56° C | 97% | 1033.1 hPa | 0 mm | - | - | - |
* Rain latest hour (hover to see other rain measurements)
** Current wind speed in m/s (hover to see current wind gust speed)